Location: Street
(51.1247°N, 2.7429°W)
Time: 10:20:03
(UTC+01:00)

PCSat - Pass Details

Date: 30 March 2023
Orbit: 783 x 794 km, 67.1° (Epoch: 29 May)

Event Time Altitude Azimuth Distance (km) Brightness Sun altitude
Rises 01:38:25 0° 321° (NW) 3,303 13.3 -35.1°
Reaches altitude 10° 01:40:52 10° 318° (NW) 2,370 12.4 -35.0°
Enters shadow 01:42:40 21° 314° (NW) 1,712 11.5 -35.0°
